This is the latest recevied weather packets stored in our database for station/object N2ZVN. If no packets are shown the sender has not sent any weather packets the latest 10 day(s).
| Time | Temp. | Humidity | Pressure | Rain* | Wind** | Luminosity | Snow |
|---|---|---|---|---|---|---|---|
| 1777968539 | 15° C | 82% | 1001.4 hPa | 0 mm | - | 0 W/m² | - |
| 1777968235 | 15° C | 81% | 1001.4 hPa | 0 mm | - | 0 W/m² | - |
| 1777967931 | 15° C | 81% | 1001.4 hPa | 0 mm | - | 0 W/m² | - |
| 1777967628 | 15.56° C | 81% | 1001.5 hPa | 0 mm | - | 0 W/m² | - |
| 1777967325 | 15.56° C | 81% | 1001.6 hPa | 0 mm | - | 0 W/m² | - |
| 1777967022 | 15.56° C | 82% | 1001.4 hPa | 0 mm | - | 0 W/m² | - |
| 1777966720 | 15° C | 82% | 1001.7 hPa | 0 mm | - | 0 W/m² | - |
| 1777966418 | 15.56° C | 83% | 1001.6 hPa | 0 mm | - | 0 W/m² | - |
| 1777966114 | 15° C | 83% | 1001.8 hPa | 0 mm | - | 0 W/m² | - |
| 1777965810 | 15.56° C | 83% | 1001.6 hPa | 0 mm | - | 0 W/m² | - |
| 1777965506 | 15.56° C | 81% | 1001.6 hPa | 0 mm | - | 0 W/m² | - |
| 1777965203 | 15.56° C | 81% | 1002.5 hPa | 0 mm | - | 0 W/m² | - |
| 1777964901 | 16.67° C | 76% | 1002.3 hPa | 0 mm | - | 0 W/m² | - |
| 1777964598 | 16.67° C | 70% | 1002.5 hPa | 0 mm | - | 0 W/m² | - |
| 1777964293 | 16.67° C | 70% | 1002.2 hPa | 0 mm | - | 0 W/m² | - |
| 1777963990 | 16.67° C | 70% | 1002.3 hPa | 0 mm | - | 0 W/m² | - |
| 1777963687 | 17.22° C | 68% | 1002.5 hPa | 0 mm | - | 0 W/m² | - |
| 1777963384 | 17.78° C | 65% | 1002.4 hPa | 0 mm | - | 0 W/m² | - |
| 1777963082 | 17.78° C | 62% | 1002.4 hPa | 0 mm | - | 0 W/m² | - |
| 1777962778 | 18.33° C | 61% | 1002.4 hPa | 0 mm | - | 0 W/m² | - |
| 1777962475 | 18.33° C | 60% | 1002.3 hPa | 0 mm | - | 0 W/m² | - |
| 1777962172 | 18.33° C | 60% | 1002.5 hPa | 0 mm | - | 0 W/m² | - |
| 1777961869 | 18.33° C | 60% | 1002.3 hPa | 0 mm | - | 0 W/m² | - |
| 1777961567 | 18.33° C | 60% | 1002.4 hPa | 0 mm | - | 0 W/m² | - |
| 1777961264 | 18.33° C | 60% | 1002.5 hPa | 0 mm | - | 0 W/m² | - |
* Rain latest hour (hover to see other rain measurements)
** Current wind speed in m/s (hover to see current wind gust speed)